Weather History for Plattsmouth, NE

Change the Weather History Date:

Tuesday, January 14, 2014

  Actual Average (KOFF) Record (KOFF)
Temperature  
Mean Temperature 33 °F -  
Max Temperature 46 °F 31 °F 51 °F (2006)
Min Temperature 19 °F 14 °F -7 °F (2009)
Degree Days  
Heating Degree Days 32    
Moisture  
Dew Point 16 °F    
Average Humidity 51    
Maximum Humidity 67    
Minimum Humidity 23    
Precipitation  
Precipitation 0.00 in - - ()
Sea Level Pressure  
Sea Level Pressure 30.00 in    
Wind  
Wind Speed 18 mph (NW)    
Max Wind Speed 38 mph    
Max Gust Speed 52 mph    
Visibility 10 miles    
Events      
Averages and records for this station are not official NWS values.
T = Trace of Precipitation, MM = Missing Value Source: NWS Daily Summary

Daily Weather History Graph

Daily Weather History Graph

Search for Another Location

Airport:

Trip Planner

Search our weather history database for the weather conditions in past years. The results will help you decide how hot, cold, wet, or windy it might be!

Date:

Astronomy

Jan. 14, 2014 Rise Set
Actual Time 7:46 AM CST 5:19 PM CST
Civil Twilight 7:16 AM CST 5:49 PM CST
Nautical Twilight 6:42 AM CST 6:23 PM CST
Astronomical Twilight 6:09 AM CST 6:56 PM CST
Moon 4:25 PM CST (1/14) 6:21 AM CST (1/14)
Length of Visible Light 10h 33m
Length of Day
9h 32m
Waxing Gibbous, 98% of the Moon is Illuminated
Jan 14
Waxing Gibbous
Jan 15
Full
Jan 23
Last Quarter
Jan 30
New
Feb 6
First Quarter

Hourly Weather History & Observations

Time (CST) Temp. Windchill Dew Point Humidity Pressure Visibility Wind Dir Wind Speed Gust Speed Precip Events Conditions
12:15 AM 36.5 °F 31.8 °F 24.6 °F 62% 29.67 in 10.0 mi SW 5.8 mph - N/A   Scattered Clouds
12:35 AM 36.9 °F 31.4 °F 25.0 °F 62% 29.67 in 10.0 mi WSW 6.9 mph - N/A   Scattered Clouds
12:55 AM 36.7 °F 31.2 °F 25.3 °F 64% 29.66 in 10.0 mi SW 6.9 mph - N/A   Clear
1:15 AM 39.7 °F 34.3 °F 28.0 °F 63% 29.66 in 10.0 mi WSW 8.1 mph - N/A   Mostly Cloudy
1:35 AM 41.2 °F 35.5 °F 28.4 °F 60% 29.66 in 10.0 mi SW 9.2 mph - N/A   Overcast
1:55 AM 41.4 °F 35.2 °F 29.3 °F 62% 29.66 in 10.0 mi WSW 10.4 mph - N/A   Overcast
2:15 AM 42.4 °F 35.0 °F 30.7 °F 63% 29.67 in 10.0 mi West 15.0 mph - N/A   Mostly Cloudy
2:35 AM 43.7 °F 36.6 °F 31.1 °F 61% 29.67 in 10.0 mi West 15.0 mph - N/A   Overcast
2:55 AM 44.8 °F 37.7 °F 31.6 °F 60% 29.69 in 10.0 mi West 16.1 mph 20.7 mph N/A   Mostly Cloudy
3:15 AM 46.4 °F 38.3 °F 31.8 °F 57% 29.70 in 10.0 mi WNW 23.0 mph 32.2 mph N/A   Scattered Clouds
3:35 AM 46.4 °F 38.1 °F 31.6 °F 56% 29.72 in 10.0 mi WNW 24.2 mph 34.5 mph N/A   Mostly Cloudy
3:55 AM 45.9 °F 36.4 °F 31.6 °F 58% 29.73 in 10.0 mi NW 29.9 mph 38.0 mph N/A   Overcast
4:15 AM 44.6 °F 33.6 °F 30.0 °F 57% 29.74 in 10.0 mi NW 38.0 mph 51.8 mph N/A   Mostly Cloudy
4:35 AM 43.3 °F 32.3 °F 29.3 °F 58% 29.77 in 10.0 mi NW 34.5 mph 48.3 mph N/A   Overcast
4:55 AM 41.9 °F 30.5 °F 26.6 °F 55% 29.79 in 10.0 mi NNW 33.4 mph 48.3 mph N/A   Overcast
5:15 AM 41.5 °F 31.2 °F 26.6 °F 55% 29.80 in 10.0 mi NNW 26.5 mph 36.8 mph N/A   Overcast
5:35 AM 40.1 °F 30.2 °F 27.1 °F 60% 29.82 in 10.0 mi NW 21.9 mph 34.5 mph N/A   Mostly Cloudy
5:55 AM 39.2 °F 27.8 °F 27.0 °F 62% 29.84 in 10.0 mi NW 27.6 mph 36.8 mph N/A   Mostly Cloudy
6:15 AM 37.9 °F 26.6 °F 24.4 °F 58% 29.87 in 10.0 mi NW 25.3 mph 38.0 mph N/A   Scattered Clouds
6:35 AM 37.0 °F 26.7 °F 25.3 °F 63% 29.89 in 10.0 mi NW 19.6 mph 27.6 mph N/A   Clear
6:55 AM 36.0 °F 27.5 °F 25.5 °F 66% 29.89 in 10.0 mi NW 12.7 mph 16.1 mph N/A   Clear
7:15 AM 35.4 °F 24.6 °F 25.3 °F 67% 29.90 in 10.0 mi WNW 19.6 mph 24.2 mph N/A   Scattered Clouds
7:35 AM 36.0 °F 23.7 °F 22.1 °F 57% 29.92 in 10.0 mi NW 26.5 mph 41.4 mph N/A   Scattered Clouds
7:55 AM 35.6 °F 23.0 °F 21.6 °F 57% 29.94 in 10.0 mi NW 27.6 mph 43.7 mph N/A   Scattered Clouds
8:15 AM 35.1 °F 23.3 °F 22.5 °F 60% 29.95 in 10.0 mi NW 23.0 mph 32.2 mph N/A   Mostly Cloudy
8:35 AM 35.2 °F 22.5 °F 23.0 °F 61% 29.97 in 10.0 mi WNW 27.6 mph 33.4 mph N/A   Overcast
8:55 AM 33.8 °F 21.0 °F 22.5 °F 63% 29.98 in 10.0 mi NW 25.3 mph 31.1 mph N/A   Scattered Clouds
9:15 AM 34.3 °F 22.6 °F 20.5 °F 57% 29.99 in 10.0 mi NW 21.9 mph 32.2 mph N/A   Scattered Clouds
9:35 AM 34.5 °F 21.3 °F 19.4 °F 54% 30.01 in 10.0 mi NW 28.8 mph 36.8 mph N/A   Clear
9:55 AM 34.9 °F 22.2 °F 18.5 °F 51% 30.02 in 10.0 mi NW 26.5 mph 32.2 mph N/A   Clear
10:15 AM 35.2 °F 22.5 °F 18.5 °F 51% 30.03 in 10.0 mi NW 27.6 mph 33.4 mph N/A   Clear
10:35 AM 35.2 °F 21.8 °F 17.1 °F 48% 30.03 in 10.0 mi NW 31.1 mph 36.8 mph N/A   Clear
10:55 AM 35.2 °F 22.0 °F 15.3 °F 44% 30.04 in 10.0 mi NW 29.9 mph 40.3 mph N/A   Clear
11:15 AM 35.4 °F 21.8 °F 12.9 °F 40% 30.05 in 10.0 mi NW 32.2 mph 42.6 mph N/A   Clear
11:35 AM 35.6 °F 23.2 °F 11.5 °F 37% 30.05 in 10.0 mi NW 26.5 mph 39.1 mph N/A   Clear
11:55 AM 35.6 °F 23.2 °F 10.8 °F 36% 30.06 in 10.0 mi NW 26.5 mph 42.6 mph N/A   Clear
12:15 PM 36.1 °F 24.2 °F 12.2 °F 37% 30.06 in 10.0 mi NW 25.3 mph 32.2 mph N/A   Clear
12:35 PM 36.9 °F 25.4 °F 11.8 °F 36% 30.06 in 10.0 mi NW 24.2 mph 34.5 mph N/A   Clear
12:55 PM 37.0 °F 24.7 °F 9.3 °F 32% 30.05 in 10.0 mi NW 28.8 mph 35.7 mph N/A   Clear
1:15 PM 37.4 °F 26.6 °F 7.9 °F 29% 30.06 in 10.0 mi NW 21.9 mph 38.0 mph N/A   Clear
1:35 PM 38.1 °F 27.1 °F 8.1 °F 29% 30.06 in 10.0 mi NW 24.2 mph 36.8 mph N/A   Clear
1:55 PM 37.0 °F 23.7 °F 2.1 °F 23% 30.06 in 10.0 mi NW 34.5 mph 44.9 mph N/A   Clear
2:15 PM 36.7 °F 23.6 °F 4.1 °F 26% 30.07 in 10.0 mi NW 32.2 mph 41.4 mph N/A   Clear
2:35 PM 36.0 °F 23.2 °F 3.7 °F 26% 30.09 in 10.0 mi NW 28.8 mph 41.4 mph N/A   Clear
2:55 PM 36.0 °F 23.0 °F 3.4 °F 25% 30.10 in 10.0 mi WNW 29.9 mph 39.1 mph N/A   Clear
3:15 PM 34.9 °F 20.9 °F 3.2 °F 26% 30.10 in 10.0 mi NW 33.4 mph 44.9 mph N/A   Clear
3:35 PM 34.2 °F 22.1 °F 7.3 °F 33% 30.12 in 10.0 mi NNW 23.0 mph 36.8 mph N/A   Clear
3:55 PM 32.7 °F 18.8 °F 7.9 °F 35% 30.14 in 10.0 mi NW 28.8 mph 34.5 mph N/A   Clear
4:15 PM 32.0 °F 19.2 °F 7.3 °F 36% 30.15 in 10.0 mi NW 23.0 mph 32.2 mph N/A   Clear
4:35 PM 30.9 °F 17.8 °F 7.7 °F 38% 30.16 in 10.0 mi NNW 23.0 mph 29.9 mph N/A   Clear
4:55 PM 29.8 °F 18.0 °F 7.7 °F 39% 30.17 in 10.0 mi NNW 17.3 mph 25.3 mph N/A   Clear
5:15 PM 28.9 °F 16.9 °F 7.7 °F 41% 30.18 in 10.0 mi NNW 17.3 mph 24.2 mph N/A   Clear
5:35 PM 28.2 °F 18.9 °F 8.4 °F 43% 30.18 in 10.0 mi NNW 10.4 mph 19.6 mph N/A   Clear
5:55 PM 27.0 °F 18.0 °F 8.4 °F 46% 30.18 in 10.0 mi NNW 9.2 mph - N/A   Clear
6:15 PM 24.6 °F 15.1 °F 8.4 °F 50% 30.19 in 10.0 mi NNW 9.2 mph - N/A   Clear
6:35 PM 23.5 °F 15.4 °F 8.4 °F 53% 30.19 in 10.0 mi NW 6.9 mph - N/A   Clear
6:55 PM 23.2 °F 15.0 °F 8.2 °F 53% 30.19 in 10.0 mi NW 6.9 mph - N/A   Clear
7:15 PM 22.6 °F 11.9 °F 8.6 °F 55% 30.19 in 10.0 mi NW 10.4 mph - N/A   Clear
7:35 PM 23.4 °F 12.8 °F 8.6 °F 53% 30.20 in 10.0 mi NW 10.4 mph - N/A   Clear
7:55 PM 24.4 °F 14.9 °F 8.8 °F 51% 30.20 in 10.0 mi NW 9.2 mph - N/A   Mostly Cloudy
8:15 PM 24.6 °F 14.4 °F 8.6 °F 51% 30.20 in 10.0 mi NNW 10.4 mph - N/A   Overcast
8:35 PM 24.4 °F 14.2 °F 8.6 °F 51% 30.20 in 10.0 mi NNW 10.4 mph - N/A   Mostly Cloudy
8:55 PM 23.2 °F 12.6 °F 9.1 °F 55% 30.20 in 10.0 mi NW 10.4 mph - N/A   Scattered Clouds
9:15 PM 23.0 °F 10.6 °F 9.5 °F 56% 30.20 in 10.0 mi NNW 13.8 mph - N/A   Clear
9:35 PM 23.0 °F 12.4 °F 10.0 °F 58% 30.21 in 10.0 mi NNW 10.4 mph - N/A   Clear
9:55 PM 22.3 °F 9.7 °F 10.0 °F 59% 30.21 in 10.0 mi NNW 13.8 mph 18.4 mph N/A   Clear
10:15 PM 22.5 °F 9.4 °F 9.9 °F 59% 30.21 in 10.0 mi NNW 15.0 mph 24.2 mph N/A   Clear
10:35 PM 21.9 °F 8.7 °F 9.3 °F 58% 30.21 in 10.0 mi NW 15.0 mph 21.9 mph N/A   Clear
10:55 PM 20.8 °F 6.4 °F 9.1 °F 61% 30.21 in 10.0 mi NW 17.3 mph - N/A   Clear
11:15 PM 20.3 °F 7.2 °F 8.8 °F 61% 30.22 in 10.0 mi NW 13.8 mph - N/A   Clear
11:35 PM 20.3 °F 5.2 °F 8.4 °F 60% 30.22 in 10.0 mi NW 18.4 mph - N/A   Clear
11:55 PM 19.4 °F 4.1 °F 8.1 °F 61% 30.22 in 10.0 mi NW 18.4 mph 21.9 mph N/A   Clear